CDT,Max TemperatureF,Mean TemperatureF,Min TemperatureF,Max Dew PointF,MeanDew PointF,Min DewpointF,Max Humidity, Mean Humidity, Min Humidity, Max Sea Level PressureIn, Mean Sea Level PressureIn, Min Sea Level PressureIn, Max VisibilityMiles, Mean VisibilityMiles, Min VisibilityMiles, Max Wind SpeedMPH, Mean Wind SpeedMPH, Max Gust SpeedMPH,PrecipitationIn, CloudCover, Events, WindDirDegrees
2013-10-1,84,70,55,63,59,52,100,73,46,29.98,29.92,29.88,10,9,5,22,9,26,0.00,3,Fog,208
2013-10-2,81,67,53,59,49,38,100,63,25,30.12,30.04,29.99,10,10,7,14,6,18,0.00,2,Fog,101
2013-10-3,77,69,61,68,65,50,100,83,65,29.97,29.92,29.84,10,7,0,16,7,21,0.10,8,Fog-Rain-Thunderstorm,169
2013-10-4,72,68,64,70,66,63,97,92,87,30.00,29.95,29.89,10,6,2,16,6,20,1.13,8,Rain-Thunderstorm,157
2013-10-5,76,67,58,72,66,51,100,86,72,29.93,29.86,29.78,10,6,2,17,7,22,0.02,7,Rain-Thunderstorm,191
2013-10-6,59,52,44,44,41,37,89,68,47,29.81,29.78,29.73,10,10,10,16,7,22,T,6,Rain,244
2013-10-7,71,58,44,48,44,41,93,65,37,30.11,29.94,29.80,10,10,6,17,7,23,T,4,,277
2013-10-8,77,60,43,51,45,41,93,63,33,30.19,30.15,30.11,10,10,10,16,6,21,0.00,1,Fog,187
2013-10-9,74,61,47,49,44,38,93,60,27,30.26,30.19,30.14,10,10,10,13,6,16,0.00,1,,148
2013-10-10,75,60,45,52,49,43,93,67,41,30.19,30.13,30.04,10,9,3,13,4,17,0.00,2,Fog,148
2013-10-11,77,65,52,58,53,49,93,70,46,30.07,30.01,29.93,10,9,6,22,9,26,0.00,3,,153
2013-10-12,71,58,45,61,52,40,90,64,37,30.21,30.01,29.93,10,9,6,18,8,24,0.01,5,Rain-Thunderstorm,199
2013-10-13,64,51,37,42,37,32,92,62,32,30.44,30.37,30.24,10,10,10,14,3,18,0.00,0,,325
2013-10-14,65,51,36,45,40,33,92,68,43,30.44,30.33,30.14,10,10,10,15,7,21,0.00,1,Fog,103
2013-10-15,67,56,45,61,50,41,100,85,69,30.10,29.90,29.77,10,8,1,18,11,24,0.28,6,Rain,187
2013-10-16,53,50,47,47,45,39,93,84,74,29.97,29.91,29.85,10,9,5,16,9,24,T,8,Rain,254
2013-10-17,56,48,40,47,44,38,100,80,59,29.95,29.90,29.86,10,8,4,16,5,21,0.25,7,Rain,260
2013-10-18,50,43,36,41,38,34,100,83,66,29.99,29.94,29.86,10,9,5,18,6,24,0.00,7,,258
2013-10-19,54,45,35,40,36,32,92,69,45,29.95,29.87,29.80,10,10,6,24,7,33,0.01,6,Rain,225
2013-10-20,58,46,33,45,39,32,100,80,59,29.89,29.83,29.76,10,10,6,17,6,22,T,6,Rain,196
2013-10-21,51,41,30,41,30,22,78,62,45,30.01,29.94,29.82,10,10,10,21,10,26,0.00,6,,284
2013-10-22,39,33,26,36,30,23,100,80,59,30.03,29.99,29.94,10,8,1,8,2,22,0.01,5,Fog-Snow,200
2013-10-23,45,37,28,30,27,24,92,73,53,30.06,30.03,29.98,10,10,10,17,7,21,T,6,,300
2013-10-24,42,36,29,27,25,20,75,60,45,30.35,30.21,30.06,10,10,9,21,9,24,T,6,Snow,304
2013-10-25,52,38,23,30,25,20,88,63,38,30.44,30.30,30.05,10,10,10,22,10,31,0.00,3,,215
2013-10-26,55,44,32,34,28,25,82,60,38,30.12,29.99,29.88,10,10,10,25,12,32,0.00,5,,283
2013-10-27,54,40,26,32,28,25,92,65,38,30.11,30.05,29.99,10,10,10,17,6,24,0.00,2,,198
2013-10-28,51,42,32,40,34,29,92,78,63,30.40,30.28,30.08,10,10,10,20,10,23,0.00,4,,47
2013-10-29,59,48,36,41,36,32,92,66,40,30.39,30.28,30.15,10,10,8,14,7,16,0.00,6,,103
2013-10-30,60,54,48,57,51,41,100,91,82,30.15,30.01,29.77,10,3,0,24,8,30,0.58,8,Fog-Rain,140
2013-10-31,63,54,44,61,56,40,97,90,83,29.73,29.47,29.29,10,8,2,22,11,28,0.79,8,Rain,234